ALOS (DAICHI)

Last updated on Mon Sep 21 2026 00:02:09 GMT+0000 (Coordinated Universal Time)

1 28931U 06002A 26263.44487559 .00000807 00000+0 14217-3 0 9998 2 28931 98.1428 218.7721 0002069 68.9353 291.2074 14.70225661102097
UTC large
Height (km)
Speed (km/s)
/
Latitude / Longitude
Inclination (degrees)
Orbital Period (minutes)
Azimuth
Elevation
Range (km)
Doppler Factor

Next 0 passes for location: London (51.5072 / 0.1276)

No passes found over London.
ALOS (DAICHI)